{"data":{"norad_id":58209,"intl_designator":"2023-170D","name":"STARLINK-30839","alt_names":[],"object_type":"PAYLOAD","status":"ACTIVE","operator":null,"country":"US","launch_date":"2023-11-03","launch_site_code":"AFETR","launch_vehicle":null,"mission":null,"orbit_class":"UNKNOWN","rcs_meters":null,"size_class":null,"mass_kg":null,"dimensions":null,"purposes":["comms"],"wikipedia_slug":null,"has_3d_model":false,"image_url":null,"decayed_at":null,"tle_current":{"epoch":"2026-05-24T22:24:20.684736Z","epoch_age_seconds":84308,"freshness":"FRESH","line1":"1 58209U 23170D   26144.93357274  .00003285  00000+0  12882-3 0  9995","line2":"2 58209  42.9982 123.3265 0000824  81.2180 278.8765 15.27586324141963","mean_motion":15.27586324,"eccentricity":8.24e-5,"inclination_deg":42.9982,"raan_deg":123.3265,"arg_perigee_deg":81.218,"mean_anomaly_deg":278.8765,"bstar":0.00012882,"rev_number":14196,"period_min":94.266358462109,"perigee_km":482.46479959997,"apogee_km":483.5955199479,"semimajor_km":6861.1671597739,"source":"CELESTRAK","updated_at":"2026-05-25T13:38:18.574491Z"}}}